This is the latest recevied weather packets stored in our database for station/object VU3ZAG-WX. If no packets are shown the sender has not sent any weather packets the latest 10 day(s).
| Time | Temp. | Humidity | Pressure | Rain* | Wind** | Luminosity | Snow |
|---|---|---|---|---|---|---|---|
| 1777490795 | 33.33° C | 57% | 1009.7 hPa | - | - | - | - |
| 1777490188 | 33.89° C | 56% | 1009.8 hPa | - | - | - | - |
| 1777489583 | 33.89° C | 52% | 1009.8 hPa | - | - | - | - |
| 1777488977 | 33.89° C | 52% | 1009.9 hPa | - | - | - | - |
| 1777488371 | 33.33° C | 53% | 1009.9 hPa | - | - | - | - |
| 1777487766 | 33.33° C | 54% | 1010 hPa | - | - | - | - |
| 1777487159 | 32.78° C | 57% | 1010 hPa | - | - | - | - |
| 1777486553 | 32.78° C | 58% | 1010 hPa | - | - | - | - |
| 1777485947 | 32.78° C | 61% | 1010 hPa | - | - | - | - |
| 1777485341 | 33.33° C | 60% | 1010 hPa | - | - | - | - |
| 1777484735 | 33.33° C | 56% | 1010 hPa | - | - | - | - |
| 1777484129 | 33.33° C | 56% | 1010.1 hPa | - | - | - | - |
| 1777483523 | 33.33° C | 57% | 1010.1 hPa | - | - | - | - |
| 1777482917 | 32.78° C | 58% | 1010.1 hPa | - | - | - | - |
| 1777482310 | 32.78° C | 58% | 1010.1 hPa | - | - | - | - |
| 1777481704 | 32.78° C | 61% | 1010.1 hPa | - | - | - | - |
| 1777481098 | 33.33° C | 58% | 1010.1 hPa | - | - | - | - |
| 1777480492 | 32.78° C | 55% | 1010 hPa | - | - | - | - |
| 1777479887 | 32.78° C | 54% | 1010 hPa | - | - | - | - |
| 1777479280 | 32.22° C | 56% | 1009.8 hPa | - | - | - | - |
| 1777478069 | 31.67° C | 60% | 1009.5 hPa | - | - | - | - |
| 1777477463 | 31.67° C | 59% | 1009.3 hPa | - | - | - | - |
| 1777476857 | 31.67° C | 59% | 1009.1 hPa | - | - | - | - |
| 1777476252 | 31.67° C | 60% | 1009 hPa | - | - | - | - |
| 1777475646 | 31.67° C | 62% | 1008.7 hPa | - | - | - | - |
* Rain since midnight (hover to see other rain measurements)
** Current wind speed in m/s (hover to see current wind gust speed)